RH
76 75 74 79 73 81 83 88 87 81 83 79 83 83 88 92 88 87 82 78 75 72
82 78 81 79 78 79 86 89 93 95 88 86 90 94 97 97 91 85 84 82 71 73
66 75 90 90 93 95 94 94 95 98 96 93 94 98 98 98 97 94 85 78 77 79
64 67 90 94 96 92 95 89 86 93 91 93 92 96 97 98 97 98 92 91 87 83
69 75 82 86 83 86 87 82 84 85 83 87 91 96 97 96 93 96 96 92 89 83
71 79 81 86 83 79 79 82 83 87 85 92 96 94 96 93 94 98 97 93 96 95
79 81 80 83 82 77 75 75 73 77 81 84 89 92 94 90 92 97 96 97 94 89
81 77 76 76 77 71 64 64 63 63 65 68 71 81 88 87 84 87 87 89 86 86
78 73 68 70 63 60 58 57 59 61 60 63 63 60 61 60 62 66 69 70 76 84
73 66 62 60 59 54 50 49 50 52 52 54 51 47 47 49 52 54 55 57 62 66
62 56 53 51 49 48 46 47 51 53 48 43 35 35 37 40 40 41 43 45 49 52
54 49 48 46 44 43 45 46 46 43 40 39 38 38 40 39 38 38 38 35 33 36
49 47 46 45 42 44 47 47 51 52 51 49 47 45 47 48 49 47 46 45 43 41
52 48 46 43 42 44 46 48 52 54 56 58 58 57 60 61 56 56 56 56 54 53